User: anonymous   Login
Location: Unspecified
(0.0000°N, 0.0000°E)
Time: 18:29:04
(UTC+00:00)
Language:

CZ-3B DEB - Orbit

View from above orbital plane
View from above orbital plane
View from above satellite
View from above satellite

Ground track
Ground track

The orbit data is extracted from the following two-line orbital elements,

1 40186U 11077K   22274.76223226 -.00000031  00000-0  00000-0 0  9997
2 40186  26.4457  63.5073 7307429  44.3530  10.2204  1.88680515 73544
Epoch (UTC): 01 October 2022 18:17:36
Eccentricity: 0.7307429
inclination: 26.4457°
perigee height: 1070 km
apogee height: 41501 km
right ascension of ascending node: 63.5073°
argument of perigee: 44.3530°
revolutions per day: 1.88680515
mean anomaly at epoch: 10.2204°
orbit number at epoch: 7354

The dashed part of the orbit path shows where the satellite is in the earth's shadow,  

DLR